{"data":{"norad_id":68508,"intl_designator":"2026-068A","name":"STARLINK-37262","alt_names":[],"object_type":"PAYLOAD","status":"ACTIVE","operator":null,"country":"US","launch_date":"2026-03-30","launch_site_code":"AFETR","launch_vehicle":null,"mission":null,"orbit_class":"UNKNOWN","rcs_meters":null,"size_class":null,"mass_kg":null,"dimensions":null,"purposes":["comms"],"wikipedia_slug":null,"has_3d_model":false,"image_url":null,"decayed_at":null,"tle_current":{"epoch":"2026-05-25T04:00:03.998880Z","epoch_age_seconds":70897,"freshness":"FRESH","line1":"1 68508U 26068A   26145.16671295 -.02011706  00000+0 -48701-1 0  9993","line2":"2 68508  53.1644 127.3124 0001248  82.8736  34.0787 15.44034291  6010","mean_motion":15.44034291,"eccentricity":0.0001248,"inclination_deg":53.1644,"raan_deg":127.3124,"arg_perigee_deg":82.8736,"mean_anomaly_deg":34.0787,"bstar":-0.048701,"rev_number":601,"period_min":93.262177426602,"perigee_km":433.36691395372,"apogee_km":435.06727753602,"semimajor_km":6812.3540957449,"source":"CELESTRAK","updated_at":"2026-05-25T13:38:21.952067Z"}}}